DELTA 1 DEB, 10709

Orbit data source: Space-Track

DELTA 1 DEB, 10709 is space debris in SSO originally from a launch on Thu, 29 Jul 1976 UTC launched from the Air Force Western Test Range (AFWTR). Debris objects in space refer to the collection of defunct objects orbiting the Earth. Examples of debris include non-operational satellites, rocket bodies, and fragments generated from explosions, collisions, or faulty payload assembly.

Loading next visibility...
Identifier
10709, 1976-077AE
Orbit
SSO
Country
Flag of USUS
Related business
Manufacturer
Unknown
Mission
Spacecraft
Bus & Motor
Unknown
Mass
Unknown
Launch date (UTC)
1976-07-29 (49 years ago)
Launch vehicle
Unknown
Launch site
Air Force Western Test Range (AFWTR)
Object type
Payload
Rocket body
Debris
Shape & HBR
Unknown
Radar Cross Section
Medium (>0.1 m² and <1 m²)

Expand to show TLE details & history
Last TLE update: 15 hours ago

TLE from 15 hours ago
0 DELTA 1 DEB
1 10709U 76077AE  25258.18035866 -.00000250  00000-0 -14125-2 0  9997
2 10709 101.9146 324.0381 0019793 317.8140  64.3537 12.46512587231763
Epoch: 2025-09-15T04:19Z
TLE epoch observation values (Epoch: 2025-09-15T04:19:42.988Z)
Latitude
21.87952°
Longitude
-100.11653°
Altitude
1,474.762 km
Speed
7.131 km/s
True Right ascension
21h 16m 48s
True Declination
21° 46' 18"
Sunlit
Object was in full shadow at epoch
Visualization orbit readout
Latitude
Unknown
Longitude
Unknown
Altitude
Unknown
Speed
Unknown
Apparent Right ascension
Unknown
Apparent Declination
Unknown
Sunlit
N/A
Visualization observer readout
Local Sidereal Time
11:43:37
Azimuth
Unknown
Elevation
Unknown
Doppler factor
Unknown
Orbital elements
Apogee altitude
1,492.224 km
Perigee altitude
1,461.13 km
Semi-major axis
7,854.814 km
Eccentricity
0.00198
Inclination
101.9146°
RAAN
324.0381°
Arg. of periapsis
317.814°
True anomaly
64.55839°
Mean anomaly
64.3537°
Eccentric anomaly
64.45602°
Mean motion
3.11774 °/min
Orbital period
115.47 mins
BSTAR
-0.0014125
Loading maneuver chart data...
Computing Atmospheric mass density...
Loading historical data...
Loading historical data...
Loading historical data...
Loading historical data...
Loading historical data...
Loading historical data...
Loading historical data...

Documentation

Showing up to 5 results
|